カタログに戻る

STARLINK-4085

運用中通信VLEO
NORAD 53262·PAYLOAD·🇺🇸 United States

打ち上げ Jul 24, 2022 から Cape Canaveral Space Force Station

Loading…

次のパス (今後24時間)

TLE

最新Source: CelesTrak SupGP

元期: Sep 14, 2026, 21:48 UTC

1 53262C 22086W   26257.90881944  .00044283  00000+0  13438-2 0  2579
2 53262  53.1584  52.0065 0001139  79.2734 262.7198 15.33526098    18

AllMySatでSTARLINK-4085をリアルタイム追跡

Download on the App Store